Regional Weather Roundup
Issued by NWS

Home | Current Version | Previous Version | Text Only | Print | Product List | Glossary On
Versions: 1 2 3 4 5 6 7 8 9 10 11 12 13 14 15 16 17 18 19 20 21 22 23 24 25 26 27 28 29 30 31 32 33 34 35 36 37 38 39 40 41 42 43 44 45 46 47 48 49 50
000
ASUS43 KDTX 232001
RWRMI
MICHIGAN HOURLY REGIONAL WEATHER ROUNDUP
NATIONAL WEATHER SERVICE DETROIT/PONTIAC MI
400 PM EDT WED APR 23 2014

NOTE: "FAIR" INDICATES FEW OR NO CLOUDS BELOW 12,000 FEET WITH NO
SIGNIFICANT WEATHER AND/OR OBSTRUCTION TO VISIBILITY.

MIZ047>049-052>055-059>063-066>070-074>076-081>083-232100-
SOUTHEAST LOWER MICHIGAN

CITY           SKY/WX    TMP DP  RH WIND       PRES   REMARKS
ADRIAN         SUNNY     56  22  26 N12       30.09R
ALMA           SUNNY     54   8  15 N6        30.11S
ANN ARBOR      SUNNY     54  21  27 N10       30.08R
BAD AXE        SUNNY     46  12  24 N8        30.11S
CARO           SUNNY     52  18  26 NW9       30.10F
DETROIT CITY   SUNNY     56  24  29 NE8       30.08F
DETROIT        MOSUNNY   55  24  30 VRB5G17   30.09R
FLINT          SUNNY     54  14  20 N10       30.11F
GROSSE ILE     SUNNY     55  23  28 NW5       30.07R
HILLSDALE      SUNNY     55  21  27 NE8       30.08F
HOWELL         SUNNY     51  17  26 NW9       30.09S

CITY           SKY/WX    TMP DP  RH WIND       PRES   REMARKS
JACKSON        SUNNY     56  20  24 N12       30.09S
LAMBERTVILLE   SUNNY     55  28  35 N9G16     30.08S
LANSING        SUNNY     53  19  26 N12       30.12R
LAPEER         FAIR      50  14  24 NE8       30.10S
MASON          SUNNY     53  21  29 N6        30.10S
MONROE         SUNNY     54  36  50 SE8       30.07R
MT. CLEMENS    MOSUNNY   53  21  28 N16       30.07S
PONTIAC        MOSUNNY   52  20  28 N14G21    30.08S
PORT HOPE        N/A     40  22  48 N8        30.11S WCI  34
PORT HURON     SUNNY     46  28  49 NE9       30.11R
TRI CITIES     SUNNY     55  18  23 E9        30.10F
TROY           SUNNY     52  23  32 N7        30.09S
SAGINAW HB     SUNNY     52  18  25 NE7       30.10F
YPSILANTI      SUNNY     58  22  24 NW10G17   30.09R
$$
MIZ043>046-050>051-056>058-064>065-071>073-077>080-232100-
SOUTHWEST LOWER MICHIGAN

CITY           SKY/WX    TMP DP  RH WIND       PRES   REMARKS
BATTLE CREEK   MOSUNNY   54  20  26 MISG      30.11S
BENTON HARBOR  SUNNY     42  31  64 N8        30.16S
BIG RAPIDS     SUNNY     54  15  21 E3        30.09F
COLDWATER      MOSUNNY   53  21  28 NE7       30.10S
FREMONT        FAIR      56  18  23 NW5       30.11S
HOLLAND        SUNNY     47  28  47 W13       30.16R
GRAND RAPIDS   PTSUNNY   55  19  24 VRB3      30.11F
IONIA          FAIR      55  23  28 CALM      30.10S
KALAMAZOO      MOSUNNY   56  22  26 N8        30.11S
LUDINGTON      SUNNY     47  21  36 N10G17    30.15F
MARSHALL       SUNNY     54  19  25 NW5       30.09F
MOUNT PLEASANT SUNNY     56  15  20 SW7       30.09S
MUSKEGON       PTSUNNY   48  26  42 NW10      30.15S
SOUTH HAVEN    SUNNY     44  30  57 N10       30.16S
$$
MIZ016>042-232100-
NORTHERN LOWER MICHIGAN

CITY           SKY/WX    TMP DP  RH WIND       PRES   REMARKS
ALPENA         SUNNY     50  10  20 N10G21    30.11S
BEAVER ISLAND  SUNNY     45  15  29 W8        30.17S
BELLAIRE       MOSUNNY   48  17  29 NW8       30.14F
CADILLAC       SUNNY     50  12  22 N7G16     30.10S
CHARLEVOIX     SUNNY     42  21  41 W9        30.19S
FRANKFORT      MOSUNNY   44  16  31 NW8       30.16F
GAYLORD        SUNNY     48   9  20 N8        30.10F
GRAYLING       SUNNY     52  10  18 W3G10     30.10F
HARBOR SPRINGS SUNNY     38  27  65 S13       30.14S WCI  30
HOUGHTON LAKE  SUNNY     52   6  15 NW9       30.09F
MANISTEE       MOSUNNY   43  19  39 NW15      30.15F
OSCODA         SUNNY     46  17  31 NE14      30.10S
PELLSTON       SUNNY     50  16  25 N15       30.14S
ROGERS CITY    SUNNY     47  18  31 N13       30.13S
TRAVERSE CITY  PTSUNNY   45  14  28 NE12      30.14F
$$
MIZ007>008-015-232100-
EASTERN UPPER MICHIGAN

CITY           SKY/WX    TMP DP  RH WIND       PRES   REMARKS
KINROSS        SUNNY     45  16  31 NW15      30.12S
MACKINAC ISLAN SUNNY     41  23  49 SW9       30.14S
NEWBERRY       SUNNY     43  23  44 N12G20    30.15S
S. S. MARIE    SUNNY     44  19  36 NW15      30.12S
MUNISING         N/A     41  29  62 N5        30.17F
$$
MIZ004>006-011>014-085-232100-
CENTRAL UPPER MICHIGAN

CITY           SKY/WX    TMP DP  RH WIND       PRES   REMARKS
MANISTIQUE     SUNNY     46  24  41 S9        30.14F
ESCANABA       MOSUNNY   46  18  31 S10       30.15S
MENOMINEE      MOSUNNY   46  12  25 SE7       30.16F
SAWYER-GWINN   SUNNY     46  18  31 NE5       30.14F
$$
MIZ001>003-009>011-084-232100-
WESTERN UPPER MICHIGAN

CITY           SKY/WX    TMP DP  RH WIND       PRES   REMARKS
IRON MOUNTAIN  PTSUNNY   53  15  22 S6        30.10F
HOUGHTON       MOSUNNY   47  23  38 S7        30.12F
COPPER HARBOR    N/A     40  28  62 E3        30.14F
IRONWOOD       CLOUDY    54  25  32 E10       30.04F
$$

ABBREVIATIONS USED IN REMARKS
   TC - TEMPERATURE IN CELSIUS
  WCI - WIND CHILL INDEX
   HX - HEAT INDEX
  VSB - VISIBILITY




USA.gov is the U.S. government's official web portal to all federal, state and local government web resources and services.